This is the latest recevied weather packets stored in our database for station/object KM5VY. If no packets are shown the sender has not sent any weather packets the latest 10 day(s).
| Time | Temp. | Humidity | Pressure | Rain* | Wind** | Luminosity | Snow |
|---|---|---|---|---|---|---|---|
| 1788654555 | 26.67° C | 34% | 1022.7 hPa | 0 mm | - | - | - |
| 1788653952 | 27.22° C | 34% | 1022.7 hPa | 0 mm | - | - | - |
| 1788653351 | 27.22° C | 34% | 1022.7 hPa | 0 mm | - | - | - |
| 1788652750 | 27.78° C | 33% | 1022.7 hPa | 0 mm | - | - | - |
| 1788652149 | 27.78° C | 33% | 1022.7 hPa | 0 mm | - | - | - |
| 1788651548 | 28.33° C | 33% | 1022.3 hPa | 0 mm | - | - | - |
| 1788650947 | 28.33° C | 33% | 1022.7 hPa | 0 mm | - | - | - |
| 1788650346 | 28.89° C | 33% | 1022.3 hPa | 0 mm | - | - | - |
| 1788649745 | 28.89° C | 33% | 1022 hPa | 0 mm | - | - | - |
| 1788649144 | 29.44° C | 33% | 1022.3 hPa | 0 mm | - | - | - |
| 1788648543 | 29.44° C | 33% | 1022.3 hPa | 0 mm | - | - | - |
| 1788647943 | 30° C | 33% | 1022.3 hPa | 0 mm | - | - | - |
| 1788647341 | 30° C | 32% | 1022.3 hPa | 0 mm | - | - | - |
| 1788646740 | 30.56° C | 32% | 1022.3 hPa | 0 mm | - | - | - |
| 1788646139 | 30.56° C | 32% | 1022.3 hPa | 0 mm | - | - | - |
| 1788645538 | 30.56° C | 32% | 1022.3 hPa | 0 mm | - | - | - |
| 1788644945 | 30.56° C | 30% | 1022.3 hPa | 0 mm | - | - | - |
| 1788644336 | 31.11° C | 31% | 1022.7 hPa | 0 mm | - | - | - |
| 1788643735 | 31.67° C | 31% | 1022.7 hPa | 0 mm | - | - | - |
| 1788643134 | 31.67° C | 30% | 1022.7 hPa | 0 mm | - | - | - |
| 1788642533 | 31.67° C | 31% | 1023 hPa | 0 mm | - | - | - |
| 1788641932 | 31.11° C | 31% | 1023 hPa | 0 mm | - | - | - |
| 1788641331 | 31.67° C | 30% | 1023 hPa | 0 mm | - | - | - |
| 1788640730 | 32.22° C | 31% | 1023 hPa | 0 mm | - | - | - |
| 1788640130 | 32.78° C | 29% | 1023.4 hPa | 0 mm | - | - | - |
* Rain latest hour (hover to see other rain measurements)
** Current wind speed in m/s (hover to see current wind gust speed)